Погода в Щучинске

Погода в Щучинске : погода сейчас, прогноз погоды и архив. Всё, что Вы хотите узнать о погоде в Щучинске!

Поиск расширенной информации на нашем сайте:

Другие новости

Новости СМИ2

Главная страница сайта

Новости сайта

03.07.2017

Напоминаем, что на нашем специализированном сайте Метеоцентр.Азия вы можете получить высокодетализированные автоматические прогнозы погоды по пунктам России, СНГ и мира в авиационном формате (включающие направление и скорость ветра, видимость, явления погоды, количество и форму облачности, нижнюю и верхнюю границу облачности).


Погода в Щучинске - сегодня

Время (UTC), дата Ветер
(°,м/с) 
Видим.   Явления Облачность Т
(°С)
Тd
(°С)
f(%) Тe
(°С)
Pmin
(гПа)
dP
(гПа)
Po
(мм)
O2
(г/м3)
Тmin Tmax R s Состояние
почвы
21 16.02.18 280 (З) н/о  слаб. снег  10/10 200 м 
[Ns]
-12.7 -14.1 89 -13  1040.4  0.2  741  314           
03 17.02.18 тихо ()   20000 м  {снег}  10/0 средняя 
[Ac As]
-18.4 -20.2 86 -18  1042.4  0.1  742  322      0.3  20  равномерный
сухой снег
100% 
09 17.02.18 260 (З) 20000 м    ясно 
-10.3 -13.7 76 -13  1041  -0.2  742  312           
12 17.02.18 220 (ЮЗ) 20000 м    ясно 
-13.9 -16.4 81 -14  1041.5  -0.2  742  316           
15 17.02.18 тихо ()   н/о    ясно 
-20.3 -22.4 83 -20  1043.2  0.3  742  325    -9       
18 17.02.18 тихо ()   н/о    ясно 
-23.4 -25.7 81 -23  1043.6  -0.3  742  329    -9       
21 17.02.18 тихо ()   н/о    ясно 
-24.6 +26.9 100 +14  1043.8  -0.1  742  319           
00 18.02.18 тихо ()   н/о  снежные кристаллы  ясно 
-22.7 -25.1 81 -23  1042.8  -0.5  741  328           
03 18.02.18 тихо ()   0500 м  туман  ?/?  
-25.1 -27.3 82 -25  1043.8  0.4  742  331      0.0  20  равномерный
сухой снег
100% 
09 18.02.18 260 (З) 20000 м    3/0 верхняя 
[Ci sp]
-9.7 -13.8 72 -11  1039.6  -0.6  741  311           
12 18.02.18 тихо ()   20000 м    3/0 средняя, верхняя 
[Ac lent|Ci sp]
-13 -17.5 69 -13  1040.4  0.1  741  315           
15 18.02.18 тихо ()   н/о    5/0 средняя, верхняя 
[Ac lent|Ci sp]
-20.5 -22.9 81 -21  1042.5  0.5  742  325    -7.6       
18 18.02.18 тихо ()   н/о    ясно 
-22.6 -24.8 82 -23  1042.7  -0.3  741  327    -7.6       
21 18.02.18 тихо ()   н/о    ясно 
-22.2 -24.2 84 -22  1042.6  741  327           
00 19.02.18 тихо ()   н/о    ясно 
-24 -26.3 81 -24  1043.3  0.3  742  329           
06 19.02.18 160 (Ю) 20000 м    ясно 
-18.1 -21.1 77 -21  1043  742  322  -24.3         
09 19.02.18 140 (ЮВ) 20000 м    ясно 
-12.8 -17.1 70 -15  1041.2  -0.6  742  315           
12 19.02.18 180 (Ю) 20000 м    9/0 верхняя 
[Ci sp]
-16.9 -20.1 76 -19  1041.8  -0.3  742  320           
15 19.02.18 180 (Ю) н/о    10/0 верхняя 
[Ci sp]
-19.4 -21.5 83 -22  1042  -0.3  741  323    -11.6       
18 19.02.18 тихо ()   н/о    10/0 верхняя 
[Ci fib]
-19.4 -21.3 85 -19  1040.4  -1.5  740  323    -11.6       
21 19.02.18 тихо ()   н/о    6/0 верхняя 
[Ci fib]
-18.3 -19.8 88 -18  1038.6  -1.5  739  321           
00 20.02.18 130 (ЮВ) н/о    6/0 верхняя 
[Ci fib]
-18.4 -19.8 89 -21  1037.3  -1.2  738  320           
06 20.02.18 160 (Ю) 20000 м    6/0 верхняя 
[Cc]
-14.9 -17.1 83 -19  1033.6  -1.1  736  315  -21.5         
09 20.02.18 170 (Ю) 20000 м    6/0 верхняя 
[Ci sp]
-11.5 -15.7 71 -15  1031.2  -1.7  735  310           
12 20.02.18 150 (ЮВ) 20000 м    10/0 средняя, верхняя 
[Ac lent|Ci sp]
-10.3 -14.5 71 -14  1029.3  -1.5  734  308           
Время (UTC), дата Ветер
(°,м/с) 
Видим.   Явления Облачность Т
(°С)
Тd
(°С)
f(%) Тe
(°С)
Pmin
(гПа)
dP
(гПа)
Po
(мм)
O2
(г/м3)
Тmin Tmax R s Состояние
почвы

Для получения пояснительной информации подведите курсор к названию столбца.

ПОГОДА в Щучинске - архив

Всё, что Вы хотите узнать о погоде в Щучинске - удобно и подробно!

Выберите нужную дату (начиная с 1 января 2015* года) и нажмите кнопку "Найти".
Будут отображены архивные сводки погоды по пункту Щучинск, начиная с указанной даты.


Отображать данные в формате CSV (для использования в таблицах Excel)


Внимание! Наш архив погоды предназначен исключительно для личного некоммерческого использования в познавательных целях. Если Вам необходимы официальные справки о состоянии погоды (для производственных, юридических, коммерческих и т.п. целей), обращайтесь в органы Росгидромета.

*Примечание: данная дата относится к архиву по метеостанциям СССР (Россия, СНГ, Балтия).
Архив по метеостанциям Зарубежной Европы и Азии (кроме Китая) хранится 10 дней, по другим регионам земного шара (Китай, Африка, Америка, Австралия, Океания) - 1 день.

Щучинск - район местоположения метеостанции


Название, широта, долгота, высота метеостанции:
Щучинск 52.9°ш. 70.2°д. 395 м над ур. моря [Казахстан]

Дополнительная информация

В oтличие oт бoльшинства пoгoдных сайтoв мы публикуем пoдрoбную метеoинфoрмацию в детальнoм прoфессиoнальнoм фoрмате.

Характеристики температуры и влажнoсти вoздуха измеряются на высoте 2 м в тени вдали oт зданий и деревьев.
Скoрoсть ветра измеряется на высoте 10 м (на урoвне рoста челoвека скoрoсть ветра ниже в 1.5-2 раза). Если метеoстанция нахoдится в гoрoде или в лесу, тo скoрoсть ветра занижена на 2-4 м/с пo сравнению с oткрытым местoм. Скoрoсть ветра над акватoриями крупных рек и oзёр, а также на вершинах хoлмoв на 2-5 м/с выше, чем в oбычных услoвиях.
Атмoсфернoе давление в разных тoчках местнoсти мoжет значительнo oтличаться oт давления на метеoстанции, в зависимoсти oт услoвий рельефа (при пoдъёме на 10 м давление пoнижается примернo на 1 мм рт.ст.).